K0APR Weather Reports


time (UTC)temp
F
wind
direction
speed
knots
gust
knots
rain 1hr
in
rain 24hr
in
rain mn
in
humidity
%
barometer
mb
20260906190716 70 122 2.6 5.2 0.12 0.02 0.02 88 1017.5
20260906190211 69 117 3.5 4.3 0.00 0.00 0.00 87 1017.5
20260906185710 70 296 1.7 1.7 0.00 0.00 0.00 87 1016.8
20260906185209 70 276 1.7 1.7 0.00 0.00 0.00 86 1016.8
20260906184703 70 312 1.7 2.6 0.00 0.00 0.00 86 1016.8
20260906184159 70 346 0.0 0.9 0.00 0.00 0.00 86 1017.2
20260906183655 70 0 0.0 0.0 0.00 0.00 0.00 87 1017.2
20260906183151 71 340 0.0 0.9 0.00 0.00 0.00 87 1017.2
20260906182650 71 2 0.9 1.7 0.00 0.00 0.00 88 1017.2
20260906182146 71 153 1.7 1.7 0.00 0.00 0.00 88 1017.2
20260906181642 72 315 0.0 0.0 0.00 0.00 0.00 89 1017.5
20260906181138 71 306 0.0 0.0 0.00 0.00 0.00 90 1017.2
20260906180633 72 21 0.9 0.9 0.00 0.00 0.00 92 1017.5
20260906180133 74 91 0.9 1.7 0.00 0.00 0.00 93 1017.9
20260906175631 74 159 2.6 4.3 0.00 0.00 0.00 93 1017.9
20260906175126 74 191 0.9 0.9 0.00 0.00 0.00 92 1018.3
20260906174624 74 229 0.0 0.0 0.00 0.00 0.00 90 1018.3
20260906174119 74 121 2.6 4.3 0.00 0.00 0.00 89 1017.5
20260906173615 73 154 2.6 2.6 0.00 0.00 0.00 90 1017.2
20260906173110 74 143 3.5 5.2 0.00 0.00 0.00 91 1017.5
20260906172609 74 159 4.3 5.2 0.00 0.00 0.00 91 1017.2
20260906172106 74 136 6.1 7.8 0.00 0.00 0.00 91 1017.2
20260906171605 75 123 5.2 7.0 0.00 0.00 0.00 89 1017.2
20260906171101 75 115 4.3 5.2 0.00 0.00 0.00 87 1017.2
20260906170556 75 107 2.6 2.6 0.00 0.00 0.00 87 1017.5
20260906170055 75 62 0.9 1.7 0.00 0.00 0.00 89 1017.5
20260906165553 76 180 1.7 1.7 0.00 0.00 0.00 91 1017.5
20260906165053 76 229 4.3 7.0 0.00 0.00 0.00 91 1017.5
20260906164552 77 138 7.8 9.6 0.00 0.00 0.00 90 1017.2
20260906164048 77 134 6.1 8.7 0.00 0.00 0.00 89 1017.5
20260906163543 77 148 1.7 1.7 0.00 0.00 0.00 90 1017.5
20260906163039 77 142 8.7 11.3 0.00 0.00 0.00 90 1017.5
20260906162536 77 124 3.5 4.3 0.00 0.00 0.00 90 1017.2
20260906162031 77 136 5.2 6.1 0.00 0.00 0.00 90 1017.2
20260906161526 77 165 3.5 5.2 0.00 0.00 0.00 89 1017.2
20260906161025 77 136 3.5 6.1 0.00 0.00 0.00 89 1017.2
20260906160524 78 160 2.6 4.3 0.00 0.00 0.00 89 1017.2
20260906160023 78 115 1.7 2.6 0.00 0.00 0.00 89 1016.8
20260906155520 77 137 1.7 1.7 0.00 0.00 0.00 89 1016.5
20260906155017 77 146 5.2 7.8 0.00 0.00 0.00 89 1016.5
20260906154512 77 161 3.5 4.3 0.00 0.00 0.00 90 1016.8
20260906154010 77 114 0.9 0.9 0.00 0.00 0.00 90 1016.8
20260906153509 77 150 5.2 7.0 0.00 0.00 0.00 90 1016.8
20260906153005 77 154 5.2 6.1 0.00 0.00 0.00 91 1016.8
20260906152505 76 167 2.6 2.6 0.00 0.00 0.00 91 1016.8
20260906152004 76 158 2.6 2.6 0.00 0.00 0.00 91 1017.2
20260906151500 76 188 4.3 5.2 0.00 0.00 0.00 92 1017.2
20260906150955 76 122 3.5 5.2 0.00 0.00 0.00 92 1017.2
20260906150450 76 178 4.3 5.2 0.00 0.00 0.00 92 1017.2
20260906145949 76 164 4.3 5.2 0.00 0.00 0.00 92 1017.2
20260906145444 76 178 6.1 7.0 0.00 0.00 0.00 93 1016.8
20260906144944 75 107 1.7 4.3 0.00 0.00 0.00 93 1016.8
20260906144438 75 115 5.2 7.0 0.00 0.00 0.00 93 1016.8
20260906143934 75 156 4.3 6.1 0.00 0.00 0.00 94 1016.5
20260906143430 75 132 3.5 5.2 0.00 0.00 0.00 94 1016.8
20260906142926 75 133 5.2 6.1 0.00 0.00 0.00 94 1016.8
20260906142425 75 128 2.6 4.3 0.00 0.00 0.00 94 1016.8
20260906141920 75 156 2.6 2.6 0.00 0.00 0.00 94 1016.8
20260906141420 75 144 5.2 7.0 0.00 0.00 0.00 94 1016.5
20260906140914 75 171 4.3 5.2 0.00 0.00 0.00 94 1016.5
20260906140409 75 142 4.3 6.1 0.00 0.00 0.00 94 1016.8
20260906135907 74 150 4.3 6.1 0.00 0.00 0.00 94 1016.5
20260906135406 74 148 2.6 2.6 0.00 0.00 0.00 95 1017.2
20260906134902 74 150 2.6 4.3 0.00 0.00 0.00 95 1016.8
20260906134357 74 139 5.2 6.1 0.00 0.00 0.00 95 1017.2
20260906133852 74 152 6.1 7.0 0.00 0.00 0.00 95 1017.2
20260906133348 74 150 1.7 1.7 0.00 0.00 0.00 95 1017.2
20260906132844 74 147 2.6 2.6 0.00 0.00 0.00 95 1016.8
20260906132344 74 169 4.3 6.1 0.00 0.00 0.00 95 1017.2
20260906131840 74 114 2.6 5.2 0.00 0.00 0.00 95 1016.8
20260906131335 73 155 6.1 7.0 0.00 0.00 0.00 95 1016.8
20260906130831 73 147 5.2 7.8 0.00 0.00 0.00 96 1016.8
20260906130330 73 133 2.6 4.3 0.00 0.00 0.00 96 1016.5
20260906125829 73 101 2.6 4.3 0.00 0.00 0.00 96 1016.5
20260906125326 73 134 2.6 4.3 0.00 0.00 0.00 96 1016.8
20260906124821 73 143 3.5 4.3 0.00 0.00 0.00 96 1016.5
20260906124318 73 120 4.3 5.2 0.00 0.00 0.00 96 1016.8
20260906123816 73 164 4.3 5.2 0.00 0.00 0.00 96 1016.8
20260906123311 73 173 2.6 2.6 0.00 0.00 0.00 96 1016.8
20260906122811 73 172 3.5 4.3 0.00 0.00 0.00 96 1016.8
20260906122306 73 158 4.3 5.2 0.00 0.00 0.00 96 1016.5
20260906121803 73 141 2.6 2.6 0.00 0.00 0.00 96 1016.5
20260906121259 73 152 3.5 4.3 0.00 0.00 0.00 96 1016.5
20260906120755 73 120 5.2 6.1 0.00 0.00 0.00 96 1016.1
20260906120251 73 108 6.1 7.0 0.00 0.00 0.00 96 1016.5
20260906115747 72 144 4.3 6.1 0.00 0.00 0.00 96 1016.5
20260906115241 72 126 5.2 6.1 0.00 0.00 0.00 96 1016.1
20260906114740 72 103 5.2 7.0 0.00 0.00 0.00 96 1016.1
20260906114236 72 113 2.6 4.3 0.00 0.00 0.00 97 1016.1
20260906113731 72 117 3.5 4.3 0.00 0.00 0.00 97 1016.1
20260906113231 72 134 3.5 4.3 0.00 0.00 0.00 97 1016.5
20260906112730 72 100 3.5 5.2 0.00 0.00 0.00 97 1016.5
20260906112227 72 155 4.3 5.2 0.00 0.00 0.00 97 1016.1
20260906111726 72 100 4.3 5.2 0.00 0.00 0.00 97 1015.8
20260906111221 72 110 4.3 6.1 0.00 0.00 0.00 97 1016.5
20260906110716 72 155 2.6 2.6 0.00 0.00 0.00 97 1016.5
20260906110212 72 115 3.5 4.3 0.00 0.00 0.00 97 1016.1
20260906105711 72 153 2.6 4.3 0.00 0.00 0.00 97 1016.1
20260906105208 72 136 3.5 5.2 0.00 0.00 0.00 97 1016.5
20260906104707 72 162 3.5 5.2 0.00 0.00 0.00 97 1016.5
20260906104207 72 93 2.6 2.6 0.00 0.00 0.00 97 1016.1
20260906103704 72 136 3.5 4.3 0.00 0.00 0.00 97 1016.1
20260906103159 72 134 3.5 4.3 0.00 0.00 0.00 97 1016.1
20260906102655 72 148 3.5 4.3 0.00 0.00 0.00 97 1016.1
20260906102154 72 141 4.3 5.2 0.00 0.00 0.00 97 1016.5
20260906101653 72 121 5.2 7.0 0.00 0.00 0.00 97 1016.1
20260906101148 72 117 2.6 2.6 0.00 0.00 0.00 97 1016.5
20260906100645 72 132 4.3 5.2 0.00 0.00 0.00 97 1016.5
20260906100145 72 166 4.3 5.2 0.00 0.00 0.00 97 1016.5
20260906095640 72 126 4.3 5.2 0.00 0.00 0.00 97 1016.1
20260906095135 72 149 5.2 6.1 0.00 0.00 0.00 97 1016.5
20260906094634 72 137 3.5 4.3 0.00 0.00 0.00 97 1016.5
20260906094130 72 143 2.6 2.6 0.00 0.00 0.00 97 1016.8
20260906093626 72 153 2.6 5.2 0.00 0.00 0.00 97 1016.8
20260906093125 72 136 2.6 4.3 0.00 0.00 0.00 97 1016.8
20260906092620 72 139 5.2 7.0 0.00 0.00 0.00 97 1016.5
20260906092116 72 140 6.1 7.0 0.00 0.00 0.00 97 1016.5
20260906091612 72 126 4.3 5.2 0.00 0.00 0.00 97 1016.1
20260906091108 72 172 5.2 6.1 0.00 0.00 0.00 97 1016.1
20260906090609 72 143 7.0 8.7 0.00 0.00 0.00 97 1016.1
20260906090108 72 146 4.3 6.1 0.00 0.00 0.00 97 1016.1
20260906085608 72 129 6.1 7.0 0.00 0.00 0.00 97 1015.8
20260906085102 72 121 4.3 5.2 0.00 0.00 0.00 97 1016.1
20260906084557 72 115 5.2 6.1 0.00 0.00 0.00 97 1016.1
20260906084055 72 162 4.3 5.2 0.00 0.00 0.00 98 1015.8
20260906083551 72 172 3.5 4.3 0.00 0.00 0.00 98 1015.8
20260906083051 72 164 5.2 6.1 0.00 0.00 0.00 98 1015.8
20260906082546 72 109 4.3 5.2 0.00 0.00 0.00 98 1015.8
20260906082042 73 174 4.3 5.2 0.00 0.00 0.00 98 1015.8
20260906081538 73 161 3.5 4.3 0.00 0.00 0.00 98 1016.1
20260906081033 73 121 2.6 2.6 0.00 0.00 0.00 98 1015.8
20260906080530 73 173 6.1 7.8 0.00 0.00 0.00 98 1015.8
20260906080026 73 104 5.2 6.1 0.00 0.00 0.00 98 1016.1
20260906075525 73 120 5.2 6.1 0.00 0.00 0.00 98 1015.8
20260906075020 73 106 6.1 7.0 0.00 0.00 0.00 98 1015.5
20260906074515 73 158 5.2 7.0 0.00 0.00 0.00 98 1015.8
20260906074013 73 130 6.1 7.0 0.00 0.00 0.00 98 1015.5
20260906073508 74 125 5.2 6.1 0.00 0.00 0.00 98 1015.8
20260906073004 74 126 5.2 6.1 0.00 0.00 0.00 98 1015.8
20260906072459 74 161 4.3 6.1 0.00 0.00 0.00 98 1015.8
20260906071955 74 122 3.5 4.3 0.00 0.00 0.00 98 1015.8
20260906071451 74 132 5.2 6.1 0.00 0.00 0.00 98 1016.1
20260906070946 74 135 4.3 6.1 0.00 0.00 0.00 98 1015.8
20260906070443 74 111 4.3 5.2 0.00 0.00 0.00 98 1016.1
20260906065938 74 113 5.2 6.1 0.00 0.00 0.00 98 1015.5
20260906065437 74 125 4.3 5.2 0.00 0.00 0.00 98 1015.8
20260906064933 74 97 4.3 5.2 0.00 0.00 0.00 98 1016.1
20260906064430 74 166 6.1 7.8 0.00 0.00 0.00 98 1015.8
20260906063930 74 144 6.1 7.0 0.00 0.00 0.00 98 1016.1
20260906063425 74 116 4.3 6.1 0.00 0.00 0.00 98 1016.1
20260906062920 74 113 4.3 6.1 0.00 0.00 0.00 98 1016.1
20260906062421 74 144 3.5 5.2 0.00 0.00 0.00 97 1016.1
20260906061916 74 111 3.5 4.3 0.00 0.00 0.00 97 1016.5
20260906061412 74 96 3.5 4.3 0.00 0.00 0.00 97 1016.5
20260906060906 74 133 2.6 2.6 0.00 0.00 0.00 97 1016.5
20260906060403 74 137 3.5 5.2 0.00 0.00 0.00 97 1016.1
20260906055859 74 121 4.3 5.2 0.00 0.00 0.00 97 1016.1
20260906055355 74 134 4.3 5.2 0.00 0.00 0.00 97 1016.1
20260906054850 74 122 3.5 4.3 0.00 0.00 0.00 97 1016.1
20260906054344 74 143 0.9 1.7 0.00 0.00 0.00 96 1016.5
20260906053841 74 115 2.6 4.3 0.00 0.00 0.00 96 1016.5
20260906053336 73 121 2.6 2.6 0.00 0.00 0.00 96 1016.1
20260906052832 73 118 2.6 2.6 0.00 0.00 0.00 96 1016.5
20260906052328 73 133 3.5 4.3 0.00 0.00 0.00 96 1016.5
20260906051825 73 126 3.5 5.2 0.00 0.00 0.00 96 1016.5
20260906051324 73 121 2.6 2.6 0.00 0.00 0.00 95 1016.5
20260906050820 73 109 0.0 0.0 0.00 0.00 0.00 95 1016.5
20260906050315 73 105 0.0 0.0 0.00 0.00 0.00 95 1016.5
20260906045814 73 65 0.0 0.0 0.00 0.03 0.03 94 1016.5
20260906045308 73 84 0.0 0.0 0.00 0.03 0.03 94 1016.5
20260906044805 73 63 0.0 0.0 0.00 0.03 0.03 93 1016.5
20260906044259 73 79 0.0 0.0 0.00 0.03 0.03 93 1016.1
20260906043755 73 83 0.0 0.0 0.00 0.03 0.03 93 1016.1
20260906043251 73 65 0.0 0.0 0.00 0.03 0.03 92 1016.1
20260906042751 74 86 0.0 0.0 0.00 0.03 0.03 92 1016.1
20260906042250 74 58 0.0 0.0 0.00 0.03 0.03 92 1016.5
20260906041745 74 61 0.0 0.0 0.00 0.03 0.03 91 1016.1
20260906041240 74 120 0.0 0.0 0.00 0.03 0.03 91 1016.5
20260906040736 74 65 0.0 0.0 0.00 0.03 0.03 91 1016.1
20260906040231 74 52 0.0 0.0 0.00 0.03 0.03 91 1016.1
20260906035727 74 56 0.0 0.0 0.00 0.03 0.03 91 1015.8
20260906035222 74 106 0.0 0.0 0.00 0.03 0.03 90 1016.1
20260906034722 74 47 0.0 0.0 0.00 0.03 0.03 90 1016.1
20260906034217 74 45 0.0 0.0 0.00 0.03 0.03 90 1015.8
20260906033713 74 63 0.0 0.0 0.00 0.03 0.03 90 1015.8
20260906033212 74 89 0.9 0.9 0.00 0.03 0.03 90 1015.8
20260906032710 75 109 1.7 1.7 0.00 0.03 0.03 89 1015.5
20260906032209 75 125 1.7 1.7 0.00 0.03 0.03 89 1015.8
20260906031704 75 96 0.0 0.0 0.00 0.03 0.03 89 1015.8
20260906031159 75 109 2.6 2.6 0.00 0.03 0.03 88 1015.8
20260906030659 75 105 0.0 0.0 0.00 0.03 0.03 88 1015.8
20260906030154 75 99 2.6 4.3 0.00 0.03 0.03 87 1015.5
20260906025654 75 156 2.6 2.6 0.00 0.03 0.03 87 1015.5
20260906025154 76 134 2.6 4.3 0.00 0.03 0.03 86 1015.5
20260906024648 76 127 2.6 2.6 0.00 0.03 0.03 86 1015.5
20260906024147 76 151 2.6 2.6 0.00 0.03 0.03 85 1015.5
20260906023644 76 151 2.6 4.3 0.00 0.03 0.03 85 1015.5
20260906023143 76 147 2.6 2.6 0.00 0.03 0.03 84 1015.5
20260906022638 77 127 4.3 5.2 0.00 0.03 0.03 84 1015.5
20260906022134 77 134 2.6 2.6 0.00 0.03 0.03 84 1015.5
20260906021630 77 137 1.7 2.6 0.00 0.03 0.03 83 1015.5
20260906021129 77 121 2.6 2.6 0.00 0.03 0.03 83 1015.5
20260906020629 77 138 4.3 6.1 0.00 0.03 0.03 82 1015.5
20260906020124 77 163 2.6 2.6 0.00 0.03 0.03 82 1015.5
20260906015618 78 109 7.8 9.6 0.00 0.03 0.03 81 1015.1
20260906015117 78 135 5.2 7.0 0.00 0.03 0.03 81 1015.5
20260906014611 78 156 6.1 7.0 0.00 0.03 0.03 80 1015.5
20260906014108 78 105 3.5 4.3 0.00 0.03 0.03 80 1015.5
20260906013603 78 148 3.5 5.2 0.00 0.03 0.03 79 1015.5
20260906013058 78 97 3.5 5.2 0.00 0.03 0.03 78 1015.5
20260906012553 79 159 3.5 4.3 0.00 0.03 0.03 78 1015.1
20260906012053 79 146 2.6 2.6 0.00 0.03 0.03 77 1015.1
20260906011549 79 121 4.3 5.2 0.00 0.03 0.03 77 1015.1
20260906011049 79 121 2.6 4.3 0.00 0.03 0.03 76 1015.1
20260906010544 80 143 3.5 4.3 0.00 0.03 0.03 75 1015.1
20260906010041 80 133 3.5 4.3 0.00 0.03 0.03 75 1015.1
20260906005540 80 142 2.6 2.6 0.00 0.03 0.03 74 1015.1
20260906005039 80 159 7.0 7.8 0.00 0.03 0.03 74 1015.1
20260906004538 81 139 3.5 5.2 0.00 0.03 0.03 73 1015.1
20260906004033 81 168 5.2 7.0 0.00 0.03 0.03 72 1015.1
20260906003529 82 142 3.5 4.3 0.00 0.03 0.03 71 1015.1
20260906003025 82 167 6.1 7.0 0.00 0.03 0.03 71 1015.1
20260906002525 82 173 4.3 5.2 0.00 0.03 0.03 70 1015.1
20260906002019 82 146 4.3 5.2 0.00 0.03 0.03 69 1015.1
20260906001516 83 148 4.3 5.2 0.00 0.03 0.03 68 1014.7
20260906001009 83 165 6.1 7.0 0.00 0.03 0.03 67 1015.1
20260906000506 83 146 5.2 6.1 0.00 0.03 0.03 67 1015.1
20260906000000 83 128 6.1 7.0 0.00 0.03 0.03 66 1015.1
20260905235500 84 134 6.1 7.8 0.00 0.03 0.03 65 1014.7
20260905234955 84 152 5.2 6.1 0.00 0.03 0.03 65 1015.1
20260905234451 84 119 4.3 6.1 0.00 0.03 0.03 64 1014.7
20260905233950 84 165 7.0 7.8 0.00 0.03 0.03 64 1015.1
20260905233446 84 140 4.3 5.2 0.00 0.03 0.03 64 1014.7
20260905232944 84 121 7.8 9.6 0.00 0.03 0.03 63 1014.7
20260905232441 84 141 8.7 9.6 0.00 0.03 0.03 64 1014.7
20260905231936 84 138 8.7 11.3 0.00 0.03 0.03 65 1014.7
20260905231432 84 121 10.4 13.0 0.00 0.03 0.03 65 1014.7
20260905230928 84 139 7.8 9.6 0.00 0.03 0.03 66 1014.7
20260905230427 84 144 8.7 12.2 0.00 0.03 0.03 66 1014.7
20260905225925 84 134 8.7 11.3 0.00 0.03 0.03 66 1014.7
20260905225420 84 178 8.7 9.6 0.00 0.03 0.03 65 1014.7
20260905224915 84 133 7.8 12.2 0.00 0.03 0.03 65 1014.7
20260905224411 84 138 5.2 7.0 0.00 0.03 0.03 70 1014.7
20260905223911 84 99 6.1 7.0 0.00 0.03 0.03 70 1014.7
20260905223409 84 166 7.8 8.7 0.00 0.03 0.03 69 1014.7
20260905222909 84 184 9.6 12.2 0.00 0.03 0.03 69 1014.7
20260905222408 84 124 9.6 12.2 0.00 0.03 0.03 68 1014.7
20260905221904 84 126 8.7 12.2 0.00 0.03 0.03 68 1014.7
20260905221401 84 127 7.8 9.6 0.00 0.03 0.03 67 1014.7
20260905220856 84 151 7.0 8.7 0.00 0.03 0.03 66 1014.7
20260905220352 85 118 7.8 8.7 0.00 0.03 0.03 64 1014.7
20260905215851 85 111 9.6 13.0 0.00 0.03 0.03 64 1014.7
20260905215347 86 139 9.6 11.3 0.00 0.03 0.03 65 1014.4
20260905214843 85 116 8.7 9.6 0.00 0.03 0.03 66 1014.4
20260905214339 85 116 6.1 7.8 0.00 0.03 0.03 66 1014.4
20260905213839 85 109 10.4 12.2 0.00 0.03 0.03 66 1014.4
20260905213336 85 117 9.6 12.2 0.00 0.03 0.03 69 1014.4
20260905212836 85 146 6.1 8.7 0.00 0.03 0.03 68 1014.4
20260905212330 85 109 4.3 6.1 0.00 0.03 0.03 67 1014.4
20260905211830 85 147 7.8 8.7 0.00 0.03 0.03 68 1014.4
20260905211326 85 134 7.8 11.3 0.00 0.03 0.03 68 1014.4
20260905210822 85 113 11.3 13.9 0.00 0.03 0.03 67 1014.4
20260905210321 86 127 6.1 7.0 0.00 0.03 0.03 67 1014.4
20260905205820 85 103 4.3 7.0 0.00 0.03 0.03 68 1014.4
20260905205315 86 101 7.8 9.6 0.00 0.03 0.03 67 1014.4
20260905204815 86 123 19.1 21.7 0.00 0.03 0.03 66 1014.4
20260905204311 85 120 5.2 6.1 0.00 0.03 0.03 67 1014.4
20260905203810 86 91 7.0 7.8 0.00 0.03 0.03 66 1014.4
20260905203306 86 117 7.0 7.8 0.00 0.03 0.03 65 1014.4
20260905202801 85 122 4.3 5.2 0.00 0.03 0.03 66 1014.4
20260905202255 85 135 7.0 7.8 0.00 0.03 0.03 66 1014.4
20260905201751 86 128 10.4 11.3 0.00 0.03 0.03 66 1014.4
20260905201246 86 123 4.3 6.1 0.00 0.03 0.03 62 1014.4
20260905200741 86 134 7.8 8.7 0.00 0.03 0.03 64 1014.4
20260905200237 86 113 10.4 13.9 0.00 0.03 0.03 62 1014.4
20260905195735 87 114 9.6 9.6 0.00 0.03 0.03 62 1014.4
20260905195230 86 169 4.3 8.7 0.00 0.03 0.03 64 1014.4
20260905194726 86 136 6.1 7.8 0.00 0.03 0.03 64 1014.4
20260905194226 86 124 9.6 18.2 0.00 0.03 0.03 61 1014.0
20260905193725 86 154 7.8 9.6 0.00 0.03 0.03 64 1014.0
20260905193220 86 175 12.2 17.4 0.00 0.03 0.03 61 1014.0
20260905192716 86 114 7.0 8.7 0.00 0.03 0.03 63 1014.0
20260905192212 86 127 5.2 7.0 0.00 0.03 0.03 62 1014.4
20260905191711 86 115 7.0 7.8 0.00 0.03 0.03 63 1014.4
20260905191209 86 144 8.7 9.6 0.00 0.03 0.03 63 1014.4